When you browse on this site, cookies collect data to enhance your experience and personalize the content and advertising you see.
Visit our Privacy Policy to learn more. By continuing to use the site, you agree to this use of cookies and data.
  • In Spain
  • List of Countries
  • For 7 days
  • Water Temperature
  • Weather Map
  • Weather Widgets
  • user-avatar
    Login

    Hourly Weather Safaga

    Today, 22 October, Tuesday

    Time Temperature Precipitation Wind Pressure Humidity
    00:00 +22°C° 0 mm 1 mps 702 mmHg 37%
    01:00 +22°C° 0 mm 1 mps 701 mmHg 37%
    02:00 +21°C° 0 mm 1 mps 701 mmHg 38%
    03:00 +21°C° 0 mm 1 mps 701 mmHg 39%
    04:00 +21°C° 0 mm 1 mps 701 mmHg 40%
    05:00 +20°C° 0 mm 1 mps 701 mmHg 41%
    06:00 +23°C° 0 mm 1 mps 702 mmHg 36%
    07:00 +26°C° 0 mm 1 mps 702 mmHg 30%
    08:00 +28°C° 0 mm 1 mps 703 mmHg 25%
    09:00 +30°C° 0 mm 2 mps 703 mmHg 22%
    10:00 +33°C° 0 mm 3 mps 703 mmHg 20%
    11:00 +34°C° 0 mm 3 mps 704 mmHg 17%
    12:00 +35°C° 0 mm 4 mps 703 mmHg 17%
    13:00 +35°C° 0 mm 4 mps 703 mmHg 16%
    14:00 +36°C° 0 mm 4 mps 702 mmHg 15%
    15:00 +34°C° 0 mm 4 mps 702 mmHg 18%
    16:00 +33°C° 0 mm 5 mps 702 mmHg 21%
    17:00 +30°C° 0 mm 5 mps 702 mmHg 23%
    18:00 +29°C° 0 mm 4 mps 702 mmHg 27%
    19:00 +27°C° 0 mm 3 mps 702 mmHg 30%
    20:00 +25°C° 0 mm 2 mps 702 mmHg 33%
    21:00 +24°C° 0 mm 2 mps 702 mmHg 34%
    22:00 +24°C° 0 mm 2 mps 702 mmHg 36%
    23:00 +23°C° 0 mm 1 mps 702 mmHg 37%

    Tomorrow, 23 October, Wednesday

    Time Temperature Precipitation Wind Pressure Humidity
    00:00 +22°C° 0 mm 1 mps 701 mmHg 38%
    01:00 +22°C° 0 mm 1 mps 701 mmHg 39%
    02:00 +21°C° 0 mm 1 mps 701 mmHg 40%
    03:00 +20°C° 0 mm 2 mps 701 mmHg 41%
    04:00 +20°C° 0 mm 2 mps 701 mmHg 41%
    05:00 +20°C° 0 mm 2 mps 702 mmHg 42%
    06:00 +23°C° 0 mm 2 mps 702 mmHg 38%
    07:00 +25°C° 0 mm 3 mps 703 mmHg 34%
    08:00 +27°C° 0 mm 3 mps 703 mmHg 30%
    09:00 +28°C° 0 mm 4 mps 704 mmHg 28%
    10:00 +30°C° 0 mm 5 mps 704 mmHg 25%
    11:00 +32°C° 0 mm 6 mps 704 mmHg 23%
    12:00 +33°C° 0 mm 6 mps 703 mmHg 21%
    13:00 +33°C° 0 mm 6 mps 703 mmHg 20%
    14:00 +34°C° 0 mm 6 mps 702 mmHg 18%
    15:00 +32°C° 0 mm 5 mps 702 mmHg 21%
    16:00 +30°C° 0 mm 4 mps 702 mmHg 24%
    17:00 +28°C° 0 mm 4 mps 702 mmHg 27%
    18:00 +26°C° 0 mm 3 mps 702 mmHg 31%
    19:00 +25°C° 0 mm 3 mps 702 mmHg 35%
    20:00 +23°C° 0 mm 2 mps 702 mmHg 39%
    21:00 +21°C° 0 mm 2 mps 702 mmHg 39%
    22:00 +21°C° 0 mm 2 mps 702 mmHg 39%
    23:00 +21°C° 0 mm 3 mps 702 mmHg 39%

    Day after tomorrow, 24 October, Thursday

    Time Temperature Precipitation Wind Pressure Humidity
    00:00 +20°C° 0 mm 2 mps 702 mmHg 40%
    01:00 +19°C° 0 mm 2 mps 702 mmHg 41%
    02:00 +19°C° 0 mm 2 mps 702 mmHg 42%
    03:00 +18°C° 0 mm 2 mps 702 mmHg 43%
    04:00 +19°C° 0 mm 1 mps 702 mmHg 44%
    05:00 +18°C° 0 mm 1 mps 702 mmHg 45%
    06:00 +20°C° 0 mm 1 mps 702 mmHg 40%
    07:00 +22°C° 0 mm 1 mps 703 mmHg 35%
    08:00 +24°C° 0 mm 1 mps 704 mmHg 30%
    09:00 +26°C° 0 mm 2 mps 704 mmHg 26%
    10:00 +27°C° 0 mm 4 mps 704 mmHg 23%
    11:00 +29°C° 0 mm 5 mps 704 mmHg 19%
    12:00 +29°C° 0 mm 5 mps 704 mmHg 18%
    13:00 +30°C° 0 mm 6 mps 704 mmHg 16%
    14:00 +30°C° 0 mm 6 mps 703 mmHg 14%
    15:00 +28°C° 0 mm 5 mps 703 mmHg 16%
    16:00 +27°C° 0 mm 5 mps 703 mmHg 18%
    17:00 +26°C° 0 mm 4 mps 702 mmHg 20%
    18:00 +23°C° 0 mm 4 mps 702 mmHg 24%
    19:00 +21°C° 0 mm 3 mps 703 mmHg 29%
    20:00 +20°C° 0 mm 3 mps 703 mmHg 33%
    21:00 +19°C° 0 mm 2 mps 703 mmHg 36%
    22:00 +18°C° 0 mm 2 mps 703 mmHg 39%
    23:00 +17°C° 0 mm 2 mps 702 mmHg 42%

    25 October, Friday

    Time Temperature Precipitation Wind Pressure Humidity
    00:00 +17°C° 0 mm 2 mps 702 mmHg 44%
    01:00 +18°C° 0 mm 1 mps 702 mmHg 46%
    02:00 +16°C° 0 mm 1 mps 702 mmHg 49%
    03:00 +16°C° 0 mm 1 mps 702 mmHg 51%
    04:00 +15°C° 0 mm 1 mps 702 mmHg 54%
    05:00 +15°C° 0 mm 1 mps 702 mmHg 56%
    06:00 +18°C° 0 mm 1 mps 702 mmHg 49%
    07:00 +21°C° 0 mm 1 mps 703 mmHg 42%
    08:00 +23°C° 0 mm 1 mps 704 mmHg 35%
    09:00 +25°C° 0 mm 2 mps 704 mmHg 31%
    10:00 +26°C° 0 mm 3 mps 704 mmHg 26%
    11:00 +28°C° 0 mm 4 mps 704 mmHg 22%
    12:00 +28°C° 0 mm 4 mps 704 mmHg 22%
    13:00 +29°C° 0 mm 5 mps 704 mmHg 21%
    14:00 +29°C° 0 mm 5 mps 703 mmHg 21%
    15:00 +28°C° 0 mm 5 mps 703 mmHg 25%
    16:00 +26°C° 0 mm 5 mps 703 mmHg 29%
    17:00 +25°C° 0 mm 4 mps 703 mmHg 34%
    18:00 +22°C° 0 mm 3 mps 703 mmHg 42%
    19:00 +20°C° 0 mm 2 mps 703 mmHg 50%
    20:00 +19°C° 0 mm 1 mps 703 mmHg 58%
    21:00 +19°C° 0 mm 1 mps 703 mmHg 59%
    22:00 +18°C° 0 mm 1 mps 703 mmHg 59%
    23:00 +18°C° 0 mm 1 mps 703 mmHg 59%

    26 October, Saturday

    Time Temperature Precipitation Wind Pressure Humidity
    00:00 +15°C° 0 mm 0 mps 703 mmHg 60%
    01:00 +15°C° 0 mm 0 mps 703 mmHg 62%
    02:00 +15°C° 0 mm 0 mps 703 mmHg 63%
    03:00 +14°C° 0 mm 0 mps 703 mmHg 66%
    04:00 +14°C° 0 mm 0 mps 703 mmHg 68%
    05:00 +14°C° 0 mm 0 mps 703 mmHg 70%
    06:00 +18°C° 0 mm 1 mps 704 mmHg 61%
    07:00 +20°C° 0 mm 1 mps 704 mmHg 52%
    08:00 +23°C° 0 mm 1 mps 705 mmHg 42%
    09:00 +24°C° 0 mm 2 mps 705 mmHg 37%
    10:00 +26°C° 0 mm 2 mps 705 mmHg 32%
    11:00 +28°C° 0 mm 3 mps 706 mmHg 27%
    12:00 +28°C° 0 mm 4 mps 705 mmHg 25%
    13:00 +29°C° 0 mm 4 mps 705 mmHg 24%
    14:00 +30°C° 0 mm 4 mps 704 mmHg 22%
    15:00 +28°C° 0 mm 5 mps 704 mmHg 27%
    16:00 +27°C° 0 mm 5 mps 704 mmHg 32%
    17:00 +25°C° 0 mm 5 mps 704 mmHg 37%
    18:00 +23°C° 0 mm 4 mps 704 mmHg 44%
    19:00 +21°C° 0 mm 4 mps 704 mmHg 51%
    20:00 +19°C° 0 mm 3 mps 703 mmHg 58%
    21:00 +19°C° 0 mm 3 mps 703 mmHg 58%
    22:00 +18°C° 0 mm 2 mps 703 mmHg 58%
    23:00 +18°C° 0 mm 2 mps 703 mmHg 58%

    27 October, Sunday

    Time Temperature Precipitation Wind Pressure Humidity
    00:00 +17°C° 0 mm 2 mps 703 mmHg 59%
    01:00 +17°C° 0 mm 2 mps 703 mmHg 61%
    02:00 +16°C° 0 mm 2 mps 702 mmHg 62%
    03:00 +16°C° 0 mm 1 mps 702 mmHg 64%
    04:00 +15°C° 0 mm 1 mps 702 mmHg 66%
    05:00 +15°C° 0 mm 1 mps 702 mmHg 69%
    06:00 +18°C° 0 mm 1 mps 703 mmHg 58%
    07:00 +20°C° 0 mm 1 mps 704 mmHg 47%
    08:00 +23°C° 0 mm 1 mps 704 mmHg 36%
    09:00 +24°C° 0 mm 2 mps 704 mmHg 31%
    10:00 +26°C° 0 mm 2 mps 705 mmHg 27%
    11:00 +28°C° 0 mm 2 mps 705 mmHg 23%
    12:00 +29°C° 0 mm 3 mps 704 mmHg 21%
    13:00 +29°C° 0 mm 3 mps 704 mmHg 19%
    14:00 +30°C° 0 mm 4 mps 703 mmHg 18%
    15:00 +28°C° 0 mm 4 mps 703 mmHg 26%
    16:00 +26°C° 0 mm 4 mps 702 mmHg 33%
    17:00 +23°C° 0 mm 4 mps 702 mmHg 41%
    18:00 +21°C° 0 mm 4 mps 702 mmHg 49%
    19:00 +20°C° 0 mm 3 mps 702 mmHg 56%
    20:00 +18°C° 0 mm 2 mps 702 mmHg 64%
    21:00 +18°C° 0 mm 2 mps 702 mmHg 59%
    22:00 +18°C° 0 mm 2 mps 702 mmHg 55%
    23:00 +18°C° 0 mm 2 mps 702 mmHg 50%

    28 October, Monday

    Time Temperature Precipitation Wind Pressure Humidity
    00:00 +17°C° 0 mm 2 mps 702 mmHg 52%
    01:00 +16°C° 0 mm 1 mps 701 mmHg 53%
    02:00 +15°C° 0 mm 1 mps 701 mmHg 55%
    03:00 +15°C° 0 mm 1 mps 701 mmHg 57%
    04:00 +15°C° 0 mm 1 mps 701 mmHg 60%
    05:00 +14°C° 0 mm 1 mps 701 mmHg 62%
    06:00 +18°C° 0 mm 1 mps 702 mmHg 52%
    07:00 +21°C° 0 mm 1 mps 702 mmHg 42%
    08:00 +21°C° 0 mm 0 mps 703 mmHg 32%
    09:00 +25°C° 0 mm 1 mps 703 mmHg 29%
    10:00 +27°C° 0 mm 1 mps 703 mmHg 25%
    11:00 +29°C° 0 mm 1 mps 704 mmHg 21%
    12:00 +29°C° 0 mm 2 mps 703 mmHg 20%
    13:00 +30°C° 0 mm 2 mps 703 mmHg 18%
    14:00 +31°C° 0 mm 3 mps 702 mmHg 17%
    15:00 +29°C° 0 mm 3 mps 702 mmHg 24%
    16:00 +27°C° 0 mm 2 mps 702 mmHg 31%
    17:00 +24°C° 0 mm 2 mps 702 mmHg 38%
    18:00 +23°C° 0 mm 2 mps 702 mmHg 46%
    19:00 +20°C° 0 mm 2 mps 702 mmHg 54%
    20:00 +20°C° 0 mm 1 mps 702 mmHg 61%
    21:00 +19°C° 0 mm 1 mps 702 mmHg 61%
    22:00 +18°C° 0 mm 1 mps 701 mmHg 61%
    23:00 +18°C° 0 mm 1 mps 701 mmHg 62%
    Show more